AIB280 PANC-PACD

Flight info

Callsign AIB280
Flight time 1h 18m
Altitude 40000
Route ENA J115 CDB
Aircraft A359/H-SDE2E3GHIJ3J4J5LM1ORWXY/LB1D1

Departure

Time 2026-05-07 04:13
Airport Ted Stevens Anchorage International Airport (PANC)

Arrival

Time 2026-05-07 05:32
Airport Cold Bay Airport (PACD)
Time Latitude Longitude Altitude Speed Heading
2026-05-07 04:08 61.17214 -149.94829 126 ft 0 kts 94°
2026-05-07 04:12 61.17202 -149.94786 122 ft 7 kts 134°
2026-05-07 04:12 61.17127 -149.94765 117 ft 15 kts 189°
2026-05-07 04:12 61.17011 -149.94865 123 ft 21 kts 236°
2026-05-07 04:12 61.16982 -149.95186 125 ft 30 kts 271°
2026-05-07 04:13 61.16982 -149.96121 124 ft 102 kts 270°
2026-05-07 04:13 61.16996 -149.98022 197 ft 155 kts 270°
2026-05-07 04:13 61.16996 -150.00260 982 ft 153 kts 266°
2026-05-07 04:13 61.16869 -150.02469 1590 ft 166 kts 251°
2026-05-07 04:14 61.16277 -150.04777 1862 ft 198 kts 228°
2026-05-07 04:14 61.15220 -150.06901 2296 ft 225 kts 217°
2026-05-07 04:14 61.13947 -150.08962 3026 ft 238 kts 216°
2026-05-07 04:14 61.12632 -150.11119 3935 ft 243 kts 218°
2026-05-07 04:15 61.11342 -150.13429 4852 ft 247 kts 221°
2026-05-07 04:15 61.10098 -150.15865 5803 ft 250 kts 223°
2026-05-07 04:15 61.08863 -150.18444 6754 ft 254 kts 225°
2026-05-07 04:15 61.07634 -150.21106 7716 ft 258 kts 225°
2026-05-07 04:16 61.06395 -150.23834 8700 ft 262 kts 225°
2026-05-07 04:16 61.05137 -150.26607 9671 ft 267 kts 225°
2026-05-07 04:16 61.03845 -150.29444 10496 ft 277 kts 225°
2026-05-07 04:16 61.02464 -150.32455 10909 ft 300 kts 225°
2026-05-07 04:17 61.00982 -150.35666 11486 ft 315 kts 225°
2026-05-07 04:17 60.99452 -150.38976 12361 ft 321 kts 225°
2026-05-07 04:17 60.97918 -150.42289 13276 ft 326 kts 225°
2026-05-07 04:17 60.96338 -150.45694 14175 ft 330 kts 226°
2026-05-07 04:18 60.94745 -150.49121 15028 ft 333 kts 226°
2026-05-07 04:18 60.93135 -150.52579 15902 ft 336 kts 227°
2026-05-07 04:18 60.91514 -150.56055 16779 ft 338 kts 227°
2026-05-07 04:18 60.89879 -150.59558 17632 ft 341 kts 228°
2026-05-07 04:19 60.88219 -150.63110 18465 ft 345 kts 228°
2026-05-07 04:19 60.86548 -150.66678 19197 ft 348 kts 228°
2026-05-07 04:19 60.84857 -150.70285 19936 ft 352 kts 229°
2026-05-07 04:19 60.83150 -150.73918 20674 ft 355 kts 229°
2026-05-07 04:20 60.81448 -150.77534 21415 ft 359 kts 229°
2026-05-07 04:20 60.79704 -150.81234 22136 ft 362 kts 229°
2026-05-07 04:20 60.77941 -150.84967 22878 ft 366 kts 229°
2026-05-07 04:21 60.74358 -150.92534 24185 ft 373 kts 229°
2026-05-07 04:21 60.72541 -150.96363 24786 ft 377 kts 229°
2026-05-07 04:21 60.70711 -151.00209 25379 ft 379 kts 229°
2026-05-07 04:21 60.68859 -151.04095 25993 ft 382 kts 229°
2026-05-07 04:22 60.67013 -151.07961 26597 ft 385 kts 229°
2026-05-07 04:22 60.65132 -151.11895 27183 ft 389 kts 229°
2026-05-07 04:22 60.63237 -151.15860 27792 ft 391 kts 229°
2026-05-07 04:22 60.61475 -151.20092 28325 ft 392 kts 236°
2026-05-07 04:23 60.59929 -151.24687 28899 ft 394 kts 239°
2026-05-07 04:23 60.58445 -151.29395 29450 ft 397 kts 240°
2026-05-07 04:23 60.56984 -151.34185 29986 ft 400 kts 240°
2026-05-07 04:23 60.55525 -151.39036 30431 ft 403 kts 240°
2026-05-07 04:24 60.54058 -151.43923 30789 ft 408 kts 240°
2026-05-07 04:24 60.52571 -151.48857 31145 ft 412 kts 240°
2026-05-07 04:24 60.51080 -151.53775 31496 ft 416 kts 240°
2026-05-07 04:24 60.49546 -151.58809 31852 ft 420 kts 240°
2026-05-07 04:25 60.47996 -151.63872 32201 ft 424 kts 240°
2026-05-07 04:25 60.46429 -151.68974 32549 ft 428 kts 239°
2026-05-07 04:25 60.44837 -151.74140 32877 ft 432 kts 239°
2026-05-07 04:25 60.43235 -151.79330 33208 ft 436 kts 239°
2026-05-07 04:26 60.41618 -151.84555 33543 ft 439 kts 239°
2026-05-07 04:26 60.39988 -151.89810 33849 ft 443 kts 239°
2026-05-07 04:26 60.38365 -151.95034 34119 ft 446 kts 239°
2026-05-07 04:26 60.36696 -152.00393 34362 ft 450 kts 239°
2026-05-07 04:27 60.35021 -152.05759 34596 ft 453 kts 239°
2026-05-07 04:27 60.33331 -152.11160 34835 ft 456 kts 239°
2026-05-07 04:27 60.31634 -152.16570 35169 ft 456 kts 239°
2026-05-07 04:27 60.29936 -152.21970 35515 ft 456 kts 239°
2026-05-07 04:28 60.28235 -152.27369 35835 ft 457 kts 239°
2026-05-07 04:28 60.27097 -152.30974 36035 ft 457 kts 239°
2026-05-07 04:28 60.24826 -152.38150 36432 ft 458 kts 239°
2026-05-07 04:28 60.23110 -152.43560 36705 ft 459 kts 239°
2026-05-07 04:29 60.21388 -152.48989 36996 ft 460 kts 239°
2026-05-07 04:29 60.20260 -152.52591 37197 ft 460 kts 239°
2026-05-07 04:29 60.18568 -152.58048 37501 ft 460 kts 239°
2026-05-07 04:29 60.16874 -152.63534 37791 ft 461 kts 239°
2026-05-07 04:30 60.15179 -152.69018 38075 ft 461 kts 239°
2026-05-07 04:30 60.13479 -152.74493 38350 ft 462 kts 239°
2026-05-07 04:30 60.11774 -152.79960 38628 ft 462 kts 239°
2026-05-07 04:30 60.10063 -152.85427 38858 ft 463 kts 239°
2026-05-07 04:31 60.08346 -152.90897 39056 ft 463 kts 239°
2026-05-07 04:31 60.06644 -152.96298 39242 ft 464 kts 239°
2026-05-07 04:31 60.04919 -153.01762 39415 ft 464 kts 239°
2026-05-07 04:31 60.03189 -153.07228 39586 ft 465 kts 239°
2026-05-07 04:32 60.01456 -153.12688 39802 ft 465 kts 239°
2026-05-07 04:32 59.99721 -153.18146 39989 ft 465 kts 239°
2026-05-07 04:32 59.97981 -153.23604 40176 ft 465 kts 239°
2026-05-07 04:32 59.96264 -153.28980 40342 ft 466 kts 239°
2026-05-07 04:33 59.94515 -153.34443 40444 ft 468 kts 238°
2026-05-07 04:33 59.92753 -153.39934 40596 ft 468 kts 238°
2026-05-07 04:33 59.90995 -153.45401 40782 ft 468 kts 238°
2026-05-07 04:33 59.89233 -153.50863 40960 ft 468 kts 238°
2026-05-07 04:34 59.85689 -153.61819 41048 ft 474 kts 238°
2026-05-07 04:34 59.82114 -153.72816 41058 ft 476 kts 238°
2026-05-07 04:35 59.78498 -153.83886 41063 ft 476 kts 238°
2026-05-07 04:35 59.74879 -153.94911 41064 ft 476 kts 238°
2026-05-07 04:36 59.71278 -154.05832 41072 ft 476 kts 238°
2026-05-07 04:36 59.67637 -154.16822 41075 ft 477 kts 238°
2026-05-07 04:37 59.63989 -154.27783 41077 ft 476 kts 238°
2026-05-07 04:37 59.60328 -154.38731 41082 ft 477 kts 238°
2026-05-07 04:38 59.56660 -154.49650 41084 ft 478 kts 238°
2026-05-07 04:38 59.52982 -154.60484 41083 ft 479 kts 237°
2026-05-07 04:39 59.49131 -154.71216 41086 ft 480 kts 236°
2026-05-07 04:39 59.45242 -154.81878 41087 ft 480 kts 236°
2026-05-07 04:40 59.41363 -154.92534 41101 ft 480 kts 236°
2026-05-07 04:40 59.37476 -155.03219 41103 ft 480 kts 236°
2026-05-07 04:41 59.33584 -155.13885 41097 ft 480 kts 236°
2026-05-07 04:41 59.29712 -155.24445 41096 ft 480 kts 236°
2026-05-07 04:42 59.25810 -155.35037 41101 ft 480 kts 236°
2026-05-07 04:42 59.21892 -155.45625 41114 ft 480 kts 235°
2026-05-07 04:43 59.17967 -155.56182 41109 ft 480 kts 235°
2026-05-07 04:43 59.14031 -155.66722 41115 ft 481 kts 235°
2026-05-07 04:44 59.10082 -155.77250 41111 ft 481 kts 235°
2026-05-07 04:44 59.06148 -155.87692 41120 ft 481 kts 235°
2026-05-07 04:45 59.02180 -155.98177 41124 ft 481 kts 235°
2026-05-07 04:45 58.98197 -156.08654 41127 ft 481 kts 235°
2026-05-07 04:46 58.94210 -156.19097 41129 ft 482 kts 235°
2026-05-07 04:46 58.90239 -156.29453 41128 ft 482 kts 234°
2026-05-07 04:47 58.86237 -156.39844 41115 ft 482 kts 234°
2026-05-07 04:47 58.82223 -156.50217 41131 ft 482 kts 234°
2026-05-07 04:48 58.78202 -156.60568 41104 ft 482 kts 234°
2026-05-07 04:48 58.74174 -156.70888 41102 ft 482 kts 234°
2026-05-07 04:49 58.69767 -156.80636 41100 ft 484 kts 228°
2026-05-07 04:49 58.65104 -156.90000 41129 ft 484 kts 227°
2026-05-07 04:50 58.60399 -156.99274 41137 ft 485 kts 227°
2026-05-07 04:50 58.55715 -157.08480 41137 ft 485 kts 227°
2026-05-07 04:51 58.51005 -157.17727 41139 ft 485 kts 227°
2026-05-07 04:51 58.46290 -157.26954 41139 ft 485 kts 227°
2026-05-07 04:52 58.41558 -157.36180 41141 ft 485 kts 227°
2026-05-07 04:52 58.36849 -157.45322 41143 ft 485 kts 227°
2026-05-07 04:53 58.32107 -157.54491 41144 ft 485 kts 227°
2026-05-07 04:53 58.27360 -157.63631 41143 ft 485 kts 227°
2026-05-07 04:54 58.22638 -157.72686 41143 ft 485 kts 227°
2026-05-07 04:54 58.17874 -157.81785 41132 ft 485 kts 227°
2026-05-07 04:55 58.13109 -157.90851 41132 ft 486 kts 227°
2026-05-07 04:55 58.08337 -157.99893 41136 ft 486 kts 226°
2026-05-07 04:56 58.03547 -158.08932 41135 ft 486 kts 226°
2026-05-07 04:56 57.98760 -158.17931 41127 ft 486 kts 226°
2026-05-07 04:57 57.93960 -158.26924 41134 ft 487 kts 226°
2026-05-07 04:57 57.89179 -158.35824 41137 ft 487 kts 226°
2026-05-07 04:58 57.84358 -158.44759 41140 ft 487 kts 226°
2026-05-07 04:58 57.79520 -158.53693 41143 ft 487 kts 226°
2026-05-07 04:59 57.74685 -158.62591 41142 ft 487 kts 226°
2026-05-07 04:59 57.69847 -158.71460 41143 ft 487 kts 226°
2026-05-07 05:00 57.64999 -158.80312 41146 ft 487 kts 226°
2026-05-07 05:00 57.60178 -158.89078 41145 ft 487 kts 226°
2026-05-07 05:01 57.55321 -158.97878 41143 ft 487 kts 226°
2026-05-07 05:01 57.50456 -159.06656 41143 ft 487 kts 226°
2026-05-07 05:02 57.45580 -159.15419 41142 ft 487 kts 225°
2026-05-07 05:02 57.40698 -159.24161 41143 ft 487 kts 225°
2026-05-07 05:03 57.35806 -159.32886 41144 ft 488 kts 225°
2026-05-07 05:03 57.30941 -159.41528 41147 ft 488 kts 225°
2026-05-07 05:04 57.26028 -159.50221 41147 ft 488 kts 225°
2026-05-07 05:04 57.21109 -159.58892 41149 ft 488 kts 225°
2026-05-07 05:05 57.16194 -159.67523 41151 ft 488 kts 225°
2026-05-07 05:05 57.11300 -159.76083 41138 ft 488 kts 225°
2026-05-07 05:06 57.06372 -159.84670 41155 ft 488 kts 225°
2026-05-07 05:06 57.01433 -159.93243 41152 ft 488 kts 225°
2026-05-07 05:07 56.96489 -160.01792 41147 ft 488 kts 225°
2026-05-07 05:07 56.91532 -160.10330 41149 ft 488 kts 225°
2026-05-07 05:08 56.86608 -160.18780 41149 ft 488 kts 225°
2026-05-07 05:08 56.81643 -160.27269 41153 ft 488 kts 225°
2026-05-07 05:09 56.76675 -160.35747 41152 ft 488 kts 225°
2026-05-07 05:09 56.71705 -160.44198 41149 ft 488 kts 225°
2026-05-07 05:10 56.66722 -160.52634 41136 ft 489 kts 224°
2026-05-07 05:10 56.61757 -160.61010 41145 ft 489 kts 224°
2026-05-07 05:11 56.56752 -160.69423 41153 ft 489 kts 224°
2026-05-07 05:11 56.51802 -160.77713 40966 ft 480 kts 224°
2026-05-07 05:12 56.49370 -160.81771 40133 ft 472 kts 224°
2026-05-07 05:12 56.46946 -160.85812 38763 ft 478 kts 224°
2026-05-07 05:12 56.44468 -160.89918 36789 ft 489 kts 224°
2026-05-07 05:12 56.41794 -160.93832 34979 ft 498 kts 220°
2026-05-07 05:13 56.39015 -160.97596 33039 ft 501 kts 220°
2026-05-07 05:13 56.36211 -161.01329 31118 ft 499 kts 219°
2026-05-07 05:13 56.33419 -161.05026 29113 ft 496 kts 218°
2026-05-07 05:13 56.30659 -161.08670 27578 ft 486 kts 218°
2026-05-07 05:14 56.27958 -161.12226 26193 ft 475 kts 218°
2026-05-07 05:14 56.25315 -161.15702 24828 ft 466 kts 218°
2026-05-07 05:14 56.22719 -161.19113 23464 ft 457 kts 217°
2026-05-07 05:14 56.20179 -161.22443 22068 ft 448 kts 218°
2026-05-07 05:15 56.17667 -161.25732 21459 ft 440 kts 218°
2026-05-07 05:15 56.15257 -161.28881 21191 ft 432 kts 218°
2026-05-07 05:15 56.12785 -161.32110 20936 ft 435 kts 218°
2026-05-07 05:15 56.10369 -161.35260 20715 ft 435 kts 218°
2026-05-07 05:16 56.07915 -161.38452 20445 ft 433 kts 218°
2026-05-07 05:16 56.05501 -161.41587 19771 ft 427 kts 218°
2026-05-07 05:16 56.03910 -161.43650 19281 ft 425 kts 217°
2026-05-07 05:16 56.01523 -161.46741 18673 ft 423 kts 217°
2026-05-07 05:17 55.99146 -161.49817 18072 ft 418 kts 217°
2026-05-07 05:17 55.96783 -161.52868 17487 ft 416 kts 217°
2026-05-07 05:17 55.94444 -161.55884 16946 ft 414 kts 217°
2026-05-07 05:17 55.92142 -161.58848 16408 ft 410 kts 217°
2026-05-07 05:18 55.89832 -161.61817 15864 ft 408 kts 217°
2026-05-07 05:18 55.87541 -161.64758 15327 ft 404 kts 217°
2026-05-07 05:18 55.85253 -161.67690 14789 ft 403 kts 217°
2026-05-07 05:18 55.82993 -161.70576 14246 ft 396 kts 217°
2026-05-07 05:19 55.80758 -161.73431 13702 ft 396 kts 217°
2026-05-07 05:19 55.78526 -161.76285 13141 ft 393 kts 217°
2026-05-07 05:19 55.76324 -161.79092 12608 ft 388 kts 217°
2026-05-07 05:19 55.74124 -161.81889 12107 ft 387 kts 217°
2026-05-07 05:20 55.71974 -161.84619 11577 ft 383 kts 217°
2026-05-07 05:20 55.69808 -161.87366 11036 ft 380 kts 217°
2026-05-07 05:20 55.67656 -161.90095 10671 ft 378 kts 216°
2026-05-07 05:20 55.65514 -161.92806 10560 ft 376 kts 217°
2026-05-07 05:21 55.63438 -161.95428 10429 ft 357 kts 216°
2026-05-07 05:21 55.59567 -162.00310 9955 ft 327 kts 216°
2026-05-07 05:21 55.57776 -162.02565 9685 ft 310 kts 216°
2026-05-07 05:22 55.56080 -162.04698 9235 ft 290 kts 216°
2026-05-07 05:22 55.54459 -162.06737 8593 ft 281 kts 216°
2026-05-07 05:22 55.52896 -162.08701 8149 ft 273 kts 216°
2026-05-07 05:22 55.51350 -162.10640 7816 ft 272 kts 215°
2026-05-07 05:23 55.49808 -162.12572 7489 ft 272 kts 215°
2026-05-07 05:23 55.48262 -162.14507 7209 ft 271 kts 215°
2026-05-07 05:23 55.46724 -162.16431 6842 ft 268 kts 215°
2026-05-07 05:23 55.45209 -162.18323 6516 ft 266 kts 215°
2026-05-07 05:24 55.43718 -162.20183 6179 ft 265 kts 215°
2026-05-07 05:24 55.42215 -162.22055 5851 ft 263 kts 215°
2026-05-07 05:24 55.40727 -162.23908 5537 ft 262 kts 214°
2026-05-07 05:24 55.39247 -162.25750 5228 ft 260 kts 215°
2026-05-07 05:25 55.37770 -162.27586 4908 ft 258 kts 214°
2026-05-07 05:25 55.36306 -162.29406 4593 ft 257 kts 214°
2026-05-07 05:25 55.34841 -162.31224 4279 ft 256 kts 214°
2026-05-07 05:25 55.33405 -162.33004 3971 ft 255 kts 214°
2026-05-07 05:26 55.31954 -162.34801 3661 ft 255 kts 213°
2026-05-07 05:26 55.30501 -162.36599 3380 ft 253 kts 213°
2026-05-07 05:26 55.29108 -162.38338 3297 ft 238 kts 214°
2026-05-07 05:26 55.27938 -162.40283 3205 ft 226 kts 227°
2026-05-07 05:27 55.26970 -162.42335 3125 ft 207 kts 229°
2026-05-07 05:27 55.26106 -162.44238 3096 ft 194 kts 229°
2026-05-07 05:27 55.25308 -162.45994 3080 ft 178 kts 229°
2026-05-07 05:27 55.24562 -162.47632 2939 ft 169 kts 229°
2026-05-07 05:28 55.23846 -162.49194 2799 ft 159 kts 228°
2026-05-07 05:28 55.23174 -162.50656 2626 ft 150 kts 229°
2026-05-07 05:28 55.22538 -162.52040 2433 ft 142 kts 229°
2026-05-07 05:28 55.21923 -162.53377 2256 ft 139 kts 228°
2026-05-07 05:29 55.21337 -162.54699 1959 ft 139 kts 233°
2026-05-07 05:29 55.20995 -162.56323 1515 ft 147 kts 257°
2026-05-07 05:29 55.20820 -162.58095 1188 ft 146 kts 261°
2026-05-07 05:29 55.20667 -162.59774 1077 ft 134 kts 261°
2026-05-07 05:30 55.20521 -162.61364 1106 ft 134 kts 261°
2026-05-07 05:30 55.20337 -162.62973 1032 ft 135 kts 253°
2026-05-07 05:30 55.20073 -162.64557 786 ft 135 kts 251°
2026-05-07 05:30 55.19828 -162.66150 653 ft 137 kts 253°
2026-05-07 05:31 55.19654 -162.67799 450 ft 137 kts 261°
2026-05-07 05:31 55.19720 -162.69473 316 ft 140 kts 278°
2026-05-07 05:31 55.19818 -162.71181 154 ft 140 kts 273°
2026-05-07 05:31 55.19882 -162.72577 148 ft 76 kts 275°
2026-05-07 05:32 55.19896 -162.72866 146 ft 0 kts 275°
2026-05-07 05:36 55.19896 -162.72867 146 ft 1 kts 275°
2026-05-07 05:37 55.19902 -162.72889 146 ft 1 kts 303°
2026-05-07 05:37 55.19915 -162.72984 147 ft 14 kts 243°
2026-05-07 05:37 55.19875 -162.72989 147 ft 2 kts 115°
2026-05-07 05:37 55.19877 -162.72979 147 ft 0 kts 81°
2026-05-07 05:39 55.19877 -162.72969 147 ft 8 kts 81°
2026-05-07 05:39 55.19869 -162.72276 148 ft 107 kts 95°
2026-05-07 05:39 55.19767 -162.70488 395 ft 168 kts 97°
2026-05-07 05:40 55.19472 -162.68596 1250 ft 158 kts 127°
2026-05-07 05:40 55.18797 -162.67090 1833 ft 165 kts 122°
2026-05-07 05:40 55.18550 -162.64998 2006 ft 194 kts 80°
2026-05-07 05:40 55.19282 -162.62937 2275 ft 226 kts 39°
2026-05-07 05:41 55.20859 -162.62018 2859 ft 246 kts
2026-05-07 05:41 55.22594 -162.61890 3679 ft 254 kts
2026-05-07 05:41 55.24346 -162.61288 4435 ft 261 kts 21°
2026-05-07 05:41 55.25873 -162.59541 5204 ft 267 kts 49°
2026-05-07 05:42 55.26811 -162.56738 6086 ft 269 kts 69°
2026-05-07 05:42 55.27373 -162.53605 7007 ft 271 kts 77°
2026-05-07 05:42 55.27743 -162.50333 7862 ft 276 kts 81°
2026-05-07 05:42 55.28036 -162.46974 8795 ft 280 kts 82°
2026-05-07 05:43 55.28319 -162.43573 9734 ft 284 kts 82°
2026-05-07 05:43 55.28629 -162.40094 10505 ft 296 kts 81°
2026-05-07 05:43 55.28988 -162.36392 10873 ft 319 kts 80°
2026-05-07 05:43 55.29401 -162.32420 11221 ft 342 kts 79°
2026-05-07 05:44 55.29852 -162.28260 11712 ft 358 kts 79°
2026-05-07 05:44 55.30329 -162.23921 12459 ft 365 kts 79°
2026-05-07 05:44 55.30814 -162.19504 13266 ft 371 kts 79°
2026-05-07 05:44 55.31304 -162.15015 14031 ft 377 kts 79°
2026-05-07 05:45 55.31799 -162.10455 14731 ft 382 kts 79°
2026-05-07 05:45 55.32298 -162.05825 15445 ft 387 kts 79°
2026-05-07 05:45 55.32798 -162.01156 16160 ft 392 kts 79°
2026-05-07 05:45 55.33295 -161.96479 16843 ft 397 kts 79°
2026-05-07 05:46 55.33802 -161.91689 17587 ft 402 kts 79°
2026-05-07 05:46 55.34315 -161.86822 18351 ft 406 kts 79°
2026-05-07 05:46 55.34831 -161.81914 19024 ft 411 kts 79°
2026-05-07 05:46 55.35350 -161.76953 19729 ft 414 kts 79°
2026-05-07 05:47 55.35871 -161.71953 20431 ft 418 kts 79°
2026-05-07 05:47 55.36395 -161.66899 21139 ft 422 kts 79°
2026-05-07 05:47 55.36922 -161.61803 21835 ft 426 kts 80°
2026-05-07 05:47 55.37452 -161.56656 22521 ft 429 kts 80°
2026-05-07 05:48 55.37984 -161.51469 23200 ft 433 kts 80°
2026-05-07 05:48 55.38520 -161.46216 23854 ft 437 kts 80°
2026-05-07 05:48 55.39057 -161.40931 24405 ft 441 kts 79°
2026-05-07 05:48 55.39596 -161.35594 24958 ft 445 kts 79°
2026-05-07 05:49 55.40138 -161.30214 25522 ft 449 kts 79°
2026-05-07 05:49 55.40683 -161.24777 26002 ft 454 kts 79°
2026-05-07 05:49 55.41232 -161.19275 26503 ft 459 kts 79°
2026-05-07 05:49 55.41784 -161.13713 27084 ft 461 kts 79°
2026-05-07 05:50 55.42328 -161.08200 27644 ft 465 kts 79°
2026-05-07 05:50 55.42888 -161.02501 28196 ft 468 kts 79°
2026-05-07 05:50 55.43442 -160.96838 28705 ft 471 kts 79°
2026-05-07 05:50 55.43991 -160.91195 29227 ft 475 kts 79°
2026-05-07 05:51 55.44548 -160.85447 29728 ft 478 kts 79°
2026-05-07 05:51 55.45107 -160.79637 30202 ft 481 kts 79°
2026-05-07 05:51 55.45667 -160.73796 30579 ft 485 kts 79°
2026-05-07 05:51 55.46229 -160.67899 30918 ft 489 kts 79°
2026-05-07 05:52 55.46791 -160.61974 31271 ft 492 kts 79°
2026-05-07 05:52 55.47356 -160.55989 31619 ft 495 kts 78°
2026-05-07 05:52 55.47919 -160.49981 31934 ft 499 kts 78°
2026-05-07 05:52 55.48484 -160.43926 32251 ft 502 kts 78°